Regional Weather Roundup
Issued by NWS

Home | Current Version | Previous Version | Text Only | Print | Product List | Glossary On
Versions: 1 2 3 4 5 6 7 8 9 10 11 12 13 14 15 16 17 18 19 20 21 22 23 24 25 26 27 28 29 30 31 32 33 34 35 36 37 38 39 40 41 42 43 44 45 46 47 48 49 50
269
ASHW40 PHFO 281143
RWRHI

WEATHER ROUNDUP FOR HAWAII
NATIONAL WEATHER SERVICE HONOLULU HI
100 AM HST TUE FEB 28 2017

THIS IS AN AUTOMATED REPORT THAT HAS NOT BEEN QUALITY CONTROLLED.

NOTE..."FAIR" INDICATES FEW OR NO CLOUDS BELOW 12,000 FEET WITH NO
SIGNIFICANT WEATHER AND/OR OBSTRUCTIONS TO VISIBILITY.

* - THESE SITES REPORT LIMITED FIELDS

HIZ001>004-281200-
KAUAI-NIIHAU-

CITY           SKY/WX    TMP DP  RH WIND       PRES   REMARKS
LIHUE APT      CLOUDY    72  67  84 E21       29.99F
PORT ALLEN*      N/A     72 N/A N/A E16G22      N/A
POIPU*           N/A     73 N/A N/A E9G16       N/A
PRINCEVILLE*     N/A     68 N/A N/A SE6G13      N/A
KOKOLE POINT*  NOT AVBL
MOLOAA DAIRY*    N/A     70  66  88 E12G23      N/A
WAIMEA HTS*      N/A     70  63  78 NE5G12      N/A
PUU OPAE*      NOT AVBL
PUU LUA*       NOT AVBL
MAKAHA RIDGE*    N/A     64  59  82 CALM        N/A
$$

HIZ005>011-281200-
OAHU-

CITY           SKY/WX    TMP DP  RH WIND       PRES   REMARKS
HONOLULU       CLOUDY    72  65  78 E8        29.98F
KALAELOA       MOCLDY    72  65  78 NE6       29.99F
KANEOHE MCB    NOT AVBL
WHEELER FIELD  MOCLDY    67  65  93 VRB3      30.00F
BELLOWS*         N/A    N/A N/A N/A E20         N/A
KAHUKU*          N/A    N/A N/A N/A NE12G20     N/A
WHEELER*         N/A    N/A N/A N/A S3          N/A
WAIANAE HARBOR   N/A    N/A N/A N/A E9G15       N/A
DILLINGHAM*    NOT AVBL
KAHUKU TRN*      N/A     79  73  83 W12G26      N/A
KAWAILOA*        N/A     66  63  88 E7G20       N/A
KII*             N/A     73  66  78 E22         N/A
MAKUA RANGE*   NOT AVBL
OAHU FOREST NW NOT AVBL
SCHOFIELD BRK*   N/A     66  64  94 NW1         N/A
SCHOFIELD S*   NOT AVBL
WAIANAE VLY*   NOT AVBL
KUAOKALA*        N/A     70   0   6 E12G18      N/A
HONOULIUULI*   NOT AVBL
MOKUOLOE IS*   NOT AVBL
PALEHUA*         N/A     63  63 100 NE12G21     N/A
WAIAWA PHB*    NOT AVBL
$$

HIZ012>013-281200-
MOLOKAI-

CITY           SKY/WX    TMP DP  RH WIND       PRES   REMARKS
MOLOKAI AIRPT  CLOUDY    71  64  78 NE8       29.99F
KALAUPAPA      NOT AVBL
MAKAPULAPAI*     N/A     72  64  78 E16G30      N/A
MOLOKAI 1*     NOT AVBL
PUU ALII*        N/A     56  56 100 NE3G13      N/A
$$

HIZ016-281200-
KAHOOLAWE-

CITY           SKY/WX    TMP DP  RH WIND       PRES   REMARKS
KAHOOLAWE*     NOT AVBL
HAKIOAWA*        N/A     66  63  89 MISG      30.38F
HONOKANAIA*      N/A     71  64  77 NE16G26   29.92F
KANELOA*         N/A     70  66  88 NE21G35   30.04S
KEALIALALO*    NOT AVBL
LUA MAKIKA*    NOT AVBL
$$

HIZ014>015-281200-
LANAI-

CITY           SKY/WX    TMP DP  RH WIND       PRES   REMARKS
LANAI CITY       N/A     66  62  87 NE12      30.03R
LANAI 1*       NOT AVBL
$$

HIZ017>028-281200-
MAUI-

CITY           SKY/WX    TMP DP  RH WIND       PRES   REMARKS
KAHULUI        CLOUDY    71  64  78 SE9       29.98S
KAPALUA-W MAUI NOT AVBL
HANA AIRPORT   CLOUDY    72  63  73 SE6       30.03F
HANA*            N/A     72 N/A N/A E7G15       N/A
HALEAKALA SUMM   N/A     39  39 100 SE14G45     N/A
MAALAEA BAY*     N/A     72 N/A N/A N16G24      N/A
HALEAKALA*     NOT AVBL
KAUPO GAP*       N/A     70  70 100 E7G18       N/A
KULA 1*          N/A     48  46  93 NW3G9       N/A
$$

HIZ023>026-281200-
BIG ISLAND OF HAWAII COAST AND LOWER SLOPES-

CITY           SKY/WX    TMP DP  RH WIND       PRES   REMARKS
KAILUA KONA    CLOUDY    73  63  70 N3        29.95F
HILO           CLOUDY    67  65  93 SW5       30.02F
HONOKAA*         N/A     66 N/A N/A VRB1        N/A
KAWAIHAE MWT*    N/A     75 N/A N/A SE2         N/A
KAWAIHAE*        N/A     75 N/A N/A CALM      29.96F
SOUTH POINT*     N/A     66 N/A N/A N15G24      N/A
UPOLU AIRPORT* NOT AVBL
KAMUELA*       CLOUDY    61  59  94 NE8       30.04F
HAKALAU*         N/A     48  48 100 S5          N/A
KALOKO-HONOKO* NOT AVBL
PALI 2*          N/A     59  57  94 S10         N/A
KEALAKOMO*       N/A     72  64  78 N9          N/A
KAUPULEHU*       N/A     68  61  77 E3          N/A
KAPAPALA*        N/A     62  62 100 N2          N/A
LOWER KAHUKU*    N/A     57  57 100 VRB3G14     N/A
PUHE CS*         N/A    N/A N/A N/A E2          N/A
PUHO CS*         N/A     70  55  59 NE2         N/A
PTA KEAMUKU*     N/A     57  55  94 CALM        N/A
WAIKOLOA*        N/A    N/A N/A N/A E6G12       N/A
$$

HIZ027>028-281200-
BIG ISLAND OF HAWAII INTERIOR AND SUMMMITS-

CITY           SKY/WX    TMP DP  RH WIND       PRES   REMARKS
BRADSHAW FIELD NOT AVBL
MK VISITOR CEN   N/A     41  36  81 E6          N/A
MAUNA KEA*       N/A     27  25  93 E5          N/A  WCI  21
MAUNA LOA*       N/A    N/A N/A N/A MISG        N/A
MAUNA LOA 1*   NOT AVBL
PTA KIPUKA*      N/A     61  61 100 SW6G12      N/A
PTA RANGE 17*    N/A     61  54  77 E12G18      N/A
PTA WEST*        N/A     55  54  94 N3G9        N/A
NENE CABIN*      N/A     48  48 100 NE5G10      N/A
AHUMOA*          N/A     48  46  93 S7G16       N/A
PTA PORTABLE*  NOT AVBL
PUU MALI*        N/A     48  48 100 S5G12       N/A
$$

HIC003-281200-
NORTHWEST ISLANDS-

CITY           SKY/WX    TMP DP  RH WIND       PRES   REMARKS
MIDWAY ISLAND  CLOUDY    63  57  82 CALM      29.99R
MIDWAY NOS*      N/A     66 N/A N/A MISG      29.98R
FRENCH FRIGATE NOT AVBL
$$

PHZ110>124-180-281200-
BUOY REPORTS

STATION/POSITION TIME  TEMP    WIND        PRES    WAVE   SWELL
                       AIR SEA DIR/SP/G            HT/PER HT/DIR
                 (UTC) (F)     (DEG/KT/KT) (MB)    (FT/S) (FT/D)
BUOY 51001       1130   72 72  110/ 14/ 16 1015.1F
BUOY 51101       1050   72 73  110/ 14/ 17 1015.8F   7/12   7/ 50
BUOY 51100       NOT AVBL
BUOY 51002       1130   73 76  110/ 17/ 23 1012.4S
BUOY 51003       1050   74 77  140/ 16/ 17 1012.7F   8/13   7/320
BUOY 51004       1050      76   60/ 10/ 12 1015.2F   7/14   7/330
BARBERS PT BUOY  NOT AVBL
WAIMEA BAY BUOY  1102      74                N/A     7/12   5
KAILUA BAY BUOY  1104      75                N/A     9/ 8   3/ 30
LANAI BUOY       1115      77                N/A     3/14   2/240
BARBERS PT 2     NOT AVBL
PAUWELA MAUI     1109      75                N/A     9/13   5/360
HILO             1112      76                N/A     8/13   5/ 10
KANEOHE BAY BUOY 1106      75                N/A     9/13   5/ 20
HANALEI KAUAI    1122      76                N/A     8/11   3/350
KAHULUI HARBOR   1112   71 75  110/  4/  7 1015.1
HONOLULU HARBOR  1112   73 76   50/  4/  6 1015.9
KILO NALU        NOT AVBL
HILO HARBOR      1112   68 74  230/  5/  6 1015.9
MOKUOLOE         1036   73 74  100/ 16/ 20 1015.6F
NAWILIWILI       1118   73      80/ 16/ 19 1015.0
WHOTS BUOY       NOT AVBL
BUOY 51028       NOT AVBL
$$

......................KEY........................................
  SKY/WX - SKY CONDITIONS/PRESENT WEATHER
  TMP    - TEMPERATURE IN FAHRENHEIT
  DWPT   - DEWPOINT IN FAHRENHEIT
  RH     - RELATIVE HUMIDITY IN PERCENT
  WIND   - DIRECTION AND SPEED /MPH FOR ISLANDS...KTS FOR BUOYS/
  PRES   - MEAN SEA LEVEL PRESSURE IN INCHES OF HG
  VSB    - VISIBILITY IN MILES
  HX     - HEAT INDEX
  WCI    - WIND CHILL INDEX
  VRB    - VARIABLE WIND DIRECTION
  N/A    - NOT AVAILABLE




USA.gov is the U.S. government's official web portal to all federal, state and local government web resources and services.